STARLINK-31824, 59804

Orbit data source: Space-Track

STARLINK-31824, 59804 is a payload satellite owned by SpaceX/Seattle (US) in LEO that was launched on Sat, 18 May 2024 UTC via an FALCON 9 launch vehicle from the Air Force Eastern Test Range (AFETR). Payload-class satellites include a variety of spacecraft equipped with specific instruments for various scientific and technological missions. These include communications satellites like Starlink; space stations such as the ISS; scientific satellites like the Hubble; Earth observation satellites from companies like Planet Labs, Umbra, and HawkEye 360; GPS; miniature CubeSats for education and research; and military/defense satellites.

Loading next visibility...
Identifier
59804, 2024-093Y
Orbit
LEO
Country
Flag of USUS
Related business
Manufacturer
SpaceX/Seattle
Mission
Operational Commercial Communications
Bus & Motor
STARLINK V2M, Unknown motor
Mass
730 kg wet, ~700 kg dry
Launch date (UTC)
2024-05-18 (2 years ago)
Launch vehicle
FALCON 9
Launch site
Air Force Eastern Test Range (AFETR)
Object type
Payload
Rocket body
Debris
Shape & HBR
Box + 2 Pan, 17.7 m
Radar Cross Section
33.884 m², Large (>1 m²)

Expand to show TLE details & history
Last TLE update: 13 hours ago

TLE from 13 hours ago
0 STARLINK-31824
1 59804U 24093Y   25340.78229995  .00007884  00000-0  29579-3 0  9991
2 59804  42.9991  13.8284 0001197 257.2583 102.8135 15.27572391 88488
Epoch: 2025-12-06T18:46Z
TLE epoch observation values (Epoch: 2025-12-06T18:46:30.715Z)
Latitude
-0.00002°
Longitude
16.3953°
Altitude
483.029 km
Speed
7.626 km/s
True Right ascension
00h 55m 18s
True Declination
0° 00' 00"
Sunlit
Object was in full shadow at epoch
Visualization orbit readout
Latitude
Unknown
Longitude
Unknown
Altitude
Unknown
Speed
Unknown
Apparent Right ascension
Unknown
Apparent Declination
Unknown
Sunlit
N/A
Visualization observer readout
Local Sidereal Time
05:24:23
Azimuth
Unknown
Elevation
Unknown
Doppler factor
Unknown
Orbital elements
Apogee altitude
485.839 km
Perigee altitude
484.196 km
Semi-major axis
6,863.154 km
Eccentricity
0.00012
Inclination
42.9991°
RAAN
13.8284°
Arg. of periapsis
257.2583°
True anomaly
102.82687°
Mean anomaly
102.8135°
Eccentric anomaly
102.82019°
Mean motion
3.81731 °/min
Orbital period
94.31 mins
BSTAR
0.00029579
Loading maneuver chart data...
Computing Atmospheric mass density...
Loading historical data...
Loading historical data...
Loading historical data...
Loading historical data...
Loading historical data...
Loading historical data...
Loading historical data...

Documentation

Showing up to 5 results
|